, SD

(GMT )
Rapid City

Weather History for KRAP - December, 2013

Change the Weather History Date:

Monday, December 2, 2013

  Actual Average Record
Temperature  
Mean Temperature 41 °F 27 °F  
Max Temperature 53 °F 39 °F 69 °F (1960)
Min Temperature 28 °F 15 °F -19 °F (1985)
Degree Days  
Heating Degree Days 24 38  
Month to date heating degree days 46 75  
Since 1 July heating degree days 1766 1750  
Cooling Degree Days 0 0  
Month to date cooling degree days 0 0  
Year to date cooling degree days 724 636  
Moisture  
Dew Point 31 °F    
Average Humidity 67    
Maximum Humidity 89    
Minimum Humidity 45    
Precipitation  
Precipitation 0.04 in 0.02 in 0.21 in (1966)
Month to date precipitation 0.04 0.03  
Year to date precipitation 21.18 15.90  
Snow  
Snow T in 0.20 in 2.00 in (2008)
Month to date snowfall T 0.4  
Since 1 July snowfall 24.8 8.2  
Snow Depth 0.00 in    
Sea Level Pressure  
Sea Level Pressure 29.58 in    
Wind  
Wind Speed 9 mph (NNE)    
Max Wind Speed 20 mph    
Max Gust Speed 24 mph    
Visibility 8 miles    
Events Fog , Rain , Snow    
T = Trace of Precipitation, MM = Missing Value Source: NWS Daily Summary

Daily Weather History Graph

Daily Weather History Graph

Search for Another Location

Airport or City:

Trip Planner

Search our weather history database for the weather conditions in past years. The results will help you decide how hot, cold, wet, or windy it might be!

Date:

Astronomy

Dec. 02, 2013 Rise Set
Actual Time 7:08 AM MST 4:14 PM MST
Civil Twilight 6:35 AM MST 4:47 PM MST
Nautical Twilight 5:59 AM MST 5:23 PM MST
Astronomical Twilight 5:25 AM MST 5:58 PM MST
Moon 6:34 AM MST (12/2) 4:21 PM MST (12/2)
Length of Visible Light 10h 11m
Length of Day
9h 06m
Waning Crescent, 0% of the Moon is Illuminated
Dec 2
Waning Crescent
Dec 2
New
Dec 9
First Quarter
Dec 17
Full
Dec 25
Last Quarter

Hourly Weather History & Observations

Time (MST) Temp. Windchill Dew Point Humidity Pressure Visibility Wind Dir Wind Speed Gust Speed Precip Events Conditions
12:52 AM 33.1 °F 30.0 °F 25.0 °F 72% 29.67 in 10.0 mi WNW 3.5 mph - N/A   Partly Cloudy
1:52 AM 32.0 °F - 24.1 °F 73% 29.66 in 10.0 mi Calm Calm - N/A   Clear
2:52 AM 33.1 °F 30.0 °F 24.1 °F 70% 29.64 in 10.0 mi West 3.5 mph - N/A   Clear
3:52 AM 35.1 °F - 25.0 °F 67% 29.62 in 10.0 mi Calm Calm - N/A   Clear
4:52 AM 36.0 °F - 26.1 °F 67% 29.60 in 10.0 mi Calm Calm - N/A   Clear
5:52 AM 30.9 °F 27.5 °F 24.1 °F 76% 29.61 in 10.0 mi West 3.5 mph - N/A   Clear
6:52 AM 43.0 °F 36.8 °F 28.9 °F 58% 29.61 in 10.0 mi NW 11.5 mph - N/A   Overcast
7:52 AM 43.0 °F 35.1 °F 30.0 °F 60% 29.61 in 10.0 mi North 17.3 mph - N/A   Scattered Clouds
8:52 AM 45.0 °F 38.2 °F 32.0 °F 60% 29.60 in 10.0 mi NNW 15.0 mph - N/A   Clear
9:52 AM 46.0 °F 39.9 °F 32.0 °F 58% 29.58 in 10.0 mi NNW 13.8 mph - N/A   Overcast
10:52 AM 50.0 °F - 30.9 °F 48% 29.58 in 10.0 mi NNW 13.8 mph - N/A   Mostly Cloudy
11:52 AM 53.1 °F - 32.0 °F 45% 29.54 in 10.0 mi North 12.7 mph - N/A   Overcast
12:52 PM 51.1 °F - 33.1 °F 50% 29.54 in 10.0 mi North 13.8 mph - N/A   Clear
1:52 PM 51.1 °F - 35.1 °F 54% 29.53 in 10.0 mi North 8.1 mph - N/A   Partly Cloudy
2:52 PM 48.0 °F - 35.1 °F 61% 29.54 in 10.0 mi North 5.8 mph - 0.00 in Rain Light Rain
3:52 PM 43.0 °F 38.8 °F 33.1 °F 68% 29.55 in 10.0 mi North 6.9 mph - 0.00 in   Overcast
4:52 PM 42.1 °F 36.6 °F 33.1 °F 70% 29.57 in 10.0 mi NNE 9.2 mph - N/A   Overcast
5:52 PM 39.0 °F 31.4 °F 33.1 °F 79% 29.57 in 10.0 mi NE 12.7 mph - 0.00 in   Clear
6:52 PM 36.0 °F 29.0 °F 32.0 °F 86% 29.56 in 10.0 mi NNE 9.2 mph - N/A   Partly Cloudy
7:52 PM 39.9 °F 33.4 °F 34.0 °F 79% 29.57 in 10.0 mi NNE 10.4 mph - N/A   Overcast
8:43 PM 35.6 °F 27.1 °F 33.8 °F 93% 29.55 in 10.0 mi NE 12.7 mph - 0.00 in Rain Light Rain
8:52 PM 36.0 °F 29.6 °F 33.1 °F 89% 29.58 in 10.0 mi East 8.1 mph - 0.00 in Rain Light Rain
9:00 PM 35.6 °F 29.9 °F 33.8 °F 93% 29.55 in 10.0 mi ENE 6.9 mph - 0.00 in Rain Light Rain
9:29 PM 35.6 °F 29.9 °F 33.8 °F 93% 29.55 in 10.0 mi East 6.9 mph - 0.00 in Rain Light Rain
9:52 PM 35.1 °F 29.3 °F 33.1 °F 92% 29.60 in 10.0 mi ENE 6.9 mph - 0.00 in   Overcast
10:09 PM 33.8 °F 24.8 °F 33.8 °F 100% 29.57 in 1.5 mi NNE 12.7 mph - 0.00 in Rain Light Rain
10:17 PM 33.8 °F 24.8 °F 32.0 °F 93% 29.56 in 0.5 mi NE 12.7 mph - 0.00 in Fog , Snow Light Snow
10:24 PM 32.0 °F 23.6 °F 30.2 °F 93% 29.57 in 0.2 mi NE 10.4 mph - 0.00 in Fog , Snow Snow
10:31 PM 32.0 °F 21.2 °F 30.2 °F 93% 29.57 in 0.8 mi NE 16.1 mph - 0.01 in Snow Light Snow
10:40 PM 32.0 °F 22.1 °F 30.2 °F 93% 29.57 in 1.5 mi NE 13.8 mph - 0.01 in Snow Light Snow
10:46 PM 30.2 °F 20.2 °F 30.2 °F 100% 29.57 in 3.0 mi NE 12.7 mph - 0.01 in Snow Light Snow
10:52 PM 30.9 °F 21.7 °F 30.0 °F 96% 29.61 in 4.0 mi NE 11.5 mph - 0.01 in Snow Light Snow
11:35 PM 30.2 °F 21.3 °F 28.4 °F 93% 29.57 in 9.0 mi NE 10.4 mph - 0.02 in   Overcast
11:52 PM 30.0 °F 19.5 °F 28.0 °F 92% 29.60 in 4.0 mi NE 13.8 mph - 0.02 in Snow Light Snow